(219934) = 2002 GD109

Discovered at Socorro on 2002-04-11 by LINEAR.

Orbit

Orbit type: Main Belt

Note: WebGL enabled browser required.

epoch2024-03-31.0
epoch JD2460400.5
perihelion date2019-06-29.80861
perihelion JD2458664.30861
argument of perihelion (°)58.57469
ascending node (°)150.94695
inclination (°)6.52798
eccentricity0.1480909
perihelion distance (AU)2.7042347
Tisserand w.r.t. Jupiter3.2
ΔV w.r.t. Earth (km/sec)10.5
semimajor axis (AU)3.1743230
mean anomaly (°)302.56924
mean daily motion (°/day)0.17427180
aphelion distance (AU)3.644
period (years)5.66
P-vector [x]-0.86748294
P-vector [y]-0.48624348
P-vector [z]-0.10507439
Q-vector [x]0.49439385
Q-vector [y]-0.81923231
Q-vector [z]-0.29057383
absolute magnitude15.68
phase slope0.15
uncertainty0
referenceMPEC 2024-D35
observations used388
oppositions14
arc length (days)8008
first opposition used2002
last opposition used2024
residual rms (arc-secs)0.74
perturbers coarse indicatorM-v
perturbers precise indicator003Ek
first observation date used2002-03-14.0
last observation date used2024-02-15.0
computer nameMPCLINUX
JD of orbit computation2456406.184453
perihelion JD uncertainty (days)1.2502E-04
argument of perihelion uncertainty (°)4.8861E-05
ascending node uncertainty (°)4.3070E-05
inclination uncertainty (°)5.1562E-06
eccentricity uncertainty 5.4489E-08
perihelion distance uncertainty (AU)1.9120E-07
Minimum Orbit Intersection Distances (in AU)
for orbit epoch: 2460400.5, reference: E2024-GF4
Mercury2.26611
Venus1.98342
Earth1.70708
Mars1.0911
Jupiter1.34369
Saturn5.55397
Uranus15.5369
Neptune26.1886

Observations

396 total observations over interval: 2002 03 14.41289 – 2024 02 15.318433
These data are available for download (format description).

Date (UT) J2000 RA J2000 Dec Magn Location Ref
2002 03 14.41289 13 49 50.76 -04 11 49.6 20.8 V 691 – Steward Observatory, Kitt Peak-Spacewatch MPS 57503
2002 03 14.43422 13 49 50.30 -04 11 43.2 21.7 V 691 – Steward Observatory, Kitt Peak-Spacewatch MPS 57503
2002 03 14.45539 13 49 49.84 -04 11 36.2 20.3 V 691 – Steward Observatory, Kitt Peak-Spacewatch MPS 57503
2002 04 11.33630 13 34 18.37 -01 24 53.2 19.4   704 – Lincoln Laboratory ETS, New Mexico MPS 57503
2002 04 11.34805 13 34 17.81 -01 24 49.1 19.8   704 – Lincoln Laboratory ETS, New Mexico MPS 57503
2002 04 11.35980 13 34 17.22 -01 24 43.9 19.4   704 – Lincoln Laboratory ETS, New Mexico MPS 57503
2002 04 12.52701 13 33 27.74 -01 17 48.9 20.5   608 – Haleakala-AMOS MPS 57503
2002 04 12.53780 13 33 27.28 -01 17 45.6 20.5   608 – Haleakala-AMOS MPS 57503
2002 04 12.54861 13 33 26.81 -01 17 41.6 20.6   608 – Haleakala-AMOS MPS 57503
2002 04 16.32018 13 30 47.17 -00 56 02.5 19.1   704 – Lincoln Laboratory ETS, New Mexico MPS 57503
2002 04 16.33449 13 30 46.52 -00 55 58.8 19.2   704 – Lincoln Laboratory ETS, New Mexico MPS 57503
2002 04 16.34865 13 30 45.91 -00 55 52.9 19.8   704 – Lincoln Laboratory ETS, New Mexico MPS 57503
2002 04 16.36292 13 30 45.23 -00 55 48.3 19.6   704 – Lincoln Laboratory ETS, New Mexico MPS 57503
2002 04 16.37709 13 30 44.63 -00 55 44.8 19.4   704 – Lincoln Laboratory ETS, New Mexico MPS 57503
2002 04 18.40543 13 29 19.05 -00 44 36.7 19.3   644 – Palomar Mountain/NEAT MPS 57503
2002 04 18.41639 13 29 18.57 -00 44 33.1 19.0   644 – Palomar Mountain/NEAT MPS 57503
2002 04 18.42715 13 29 18.09 -00 44 29.7 19.1   644 – Palomar Mountain/NEAT MPS 57503
2002 05 07.18711 13 17 40.39 +00 33 26.4 19.9   644 – Palomar Mountain/NEAT MPS 57503
2002 05 07.20837 13 17 39.71 +00 33 29.7 20.0   644 – Palomar Mountain/NEAT MPS 57503
2002 05 07.22814 13 17 39.08 +00 33 32.5 19.7   644 – Palomar Mountain/NEAT MPS 57503
2006 11 23.46534 09 15 21.34 +11 51 13.7 20.7 V G96 – Mt. Lemmon Survey MPS 198043
2006 11 23.47203 09 15 21.49 +11 51 13.4 21.3 V G96 – Mt. Lemmon Survey MPS 198043
2006 11 23.47870 09 15 21.70 +11 51 12.1 21.4 V G96 – Mt. Lemmon Survey MPS 198043
2006 11 23.48539 09 15 21.81 +11 51 11.1 21.3 V G96 – Mt. Lemmon Survey MPS 198043
2007 01 27.33800 09 00 53.24 +13 35 25.1 19.8 V G96 – Mt. Lemmon Survey MPS 198043
2007 01 27.34764 09 00 52.77 +13 35 27.9 19.8 V G96 – Mt. Lemmon Survey MPS 198043
2007 01 27.35728 09 00 52.30 +13 35 30.7 19.9 V G96 – Mt. Lemmon Survey MPS 198043
2007 01 27.36697 09 00 51.87 +13 35 33.7 19.9 V G96 – Mt. Lemmon Survey MPS 198043
2007 01 28.27865 09 00 09.61 +13 40 05.6 19.9 V G96 – Mt. Lemmon Survey MPS 198043
2007 01 28.28720 09 00 09.18 +13 40 08.5 19.7 V G96 – Mt. Lemmon Survey MPS 198043
2007 01 28.29577 09 00 08.74 +13 40 10.7 19.6 V G96 – Mt. Lemmon Survey MPS 198043
2007 01 28.30431 09 00 08.35 +13 40 13.3 19.9 V G96 – Mt. Lemmon Survey MPS 198043
2007 01 28.32412 09 00 07.41 +13 40 19.5 19.7 V G96 – Mt. Lemmon Survey MPS 198043
2007 01 28.33289 09 00 06.98 +13 40 22.0 19.8 V G96 – Mt. Lemmon Survey MPS 198043
2007 01 28.34166 09 00 06.55 +13 40 24.6 19.9 V G96 – Mt. Lemmon Survey MPS 198043
2007 01 28.35042 09 00 06.15 +13 40 26.9 19.8 V G96 – Mt. Lemmon Survey MPS 198043
2007 02 17.27375 08 44 44.55 +15 22 31.9 20.4 V G96 – Mt. Lemmon Survey MPS 200315
2007 02 17.27824 08 44 44.34 +15 22 33.3 20.1 V G96 – Mt. Lemmon Survey MPS 200315
2007 02 17.28274 08 44 44.16 +15 22 34.3 20.1 V G96 – Mt. Lemmon Survey MPS 200315
2007 02 17.28723 08 44 43.98 +15 22 35.6 19.9 V G96 – Mt. Lemmon Survey MPS 200315
2007 03 13.21756 08 32 50.13 +17 02 09.0 20.8 V G96 – Mt. Lemmon Survey MPS 202962
2007 03 13.22536 08 32 49.99 +17 02 10.5 20.7 V G96 – Mt. Lemmon Survey MPS 202962
2007 03 13.23314 08 32 49.81 +17 02 12.9 20.1 V G96 – Mt. Lemmon Survey MPS 202962
2007 03 13.24094 08 32 49.66 +17 02 14.1 20.5 V G96 – Mt. Lemmon Survey MPS 202962
2007 04 07.13506 08 34 09.76 +17 49 57.0 20.9 V G96 – Mt. Lemmon Survey MPS 206141
2007 04 07.14189 08 34 09.91 +17 49 57.7 20.8 V G96 – Mt. Lemmon Survey MPS 206141
2007 04 07.14856 08 34 10.02 +17 49 57.4 21.0 V G96 – Mt. Lemmon Survey MPS 206141
2007 04 07.15521 08 34 10.16 +17 49 57.9 20.7 V G96 – Mt. Lemmon Survey MPS 206141
2007 04 15.16190 08 37 36.19 +17 52 14.1 21.5 V G96 – Mt. Lemmon Survey MPS 206843
2007 04 15.16865 08 37 36.37 +17 52 14.0 21.8 V G96 – Mt. Lemmon Survey MPS 206843
2007 04 15.17534 08 37 36.55 +17 52 13.6 21.4 V G96 – Mt. Lemmon Survey MPS 206843
2007 04 15.18204 08 37 36.80 +17 52 13.8 20.7 V G96 – Mt. Lemmon Survey MPS 206843
2008 04 08.43905 15 50 48.83 -10 58 41.3 20.1 V 691 – Steward Observatory, Kitt Peak-Spacewatch MPS 250391
2008 04 08.45670 15 50 48.50 -10 58 37.1 20.0 V 691 – Steward Observatory, Kitt Peak-Spacewatch MPS 250391
2008 04 08.47435 15 50 48.20 -10 58 33.1 20.2 V 691 – Steward Observatory, Kitt Peak-Spacewatch MPS 250391
2008 04 14.35108 15 48 51.82 -10 35 15.0 19.4   704 – Lincoln Laboratory ETS, New Mexico MPS 246698
2008 04 14.36218 15 48 51.59 -10 35 11.9 19.5   704 – Lincoln Laboratory ETS, New Mexico MPS 246698
2008 04 14.37325 15 48 51.29 -10 35 09.9 19.6   704 – Lincoln Laboratory ETS, New Mexico MPS 246698
2008 04 14.38429 15 48 51.03 -10 35 06.4 19.6   704 – Lincoln Laboratory ETS, New Mexico MPS 246698
2008 04 25.26148 15 43 21.16 -09 50 22.8 20.0 V 691 – Steward Observatory, Kitt Peak-Spacewatch MPS 247737
2008 04 25.27908 15 43 20.52 -09 50 18.7 19.9 V 691 – Steward Observatory, Kitt Peak-Spacewatch MPS 247737
2008 04 25.29667 15 43 19.83 -09 50 14.1 19.9 V 691 – Steward Observatory, Kitt Peak-Spacewatch MPS 247737
2008 04 27.26799 15 42 06.60 -09 42 10.3 19.9 V 691 – Steward Observatory, Kitt Peak-Spacewatch MPS 248087
2008 04 27.28560 15 42 05.89 -09 42 06.2 19.7 V 691 – Steward Observatory, Kitt Peak-Spacewatch MPS 248087
2008 04 27.30320 15 42 05.20 -09 42 01.9 19.8 V 691 – Steward Observatory, Kitt Peak-Spacewatch MPS 248087
2008 04 30.26112 15 40 08.88 -09 30 05.5 19.6 V 691 – Steward Observatory, Kitt Peak-Spacewatch MPS 248087
2008 04 30.27626 15 40 08.32 -09 30 02.3 19.7 V 691 – Steward Observatory, Kitt Peak-Spacewatch MPS 248087
2008 04 30.29142 15 40 07.67 -09 29 58.3 19.9 V 691 – Steward Observatory, Kitt Peak-Spacewatch MPS 248087
2008 04 30.29866 15 40 07.34 -09 29 56.6 19.8 C 704 – Lincoln Laboratory ETS, New Mexico MPS 287944
2008 04 30.30873 15 40 06.86 -09 29 53.4 19.5 C 704 – Lincoln Laboratory ETS, New Mexico MPS 287944
2008 04 30.32893 15 40 05.63 -09 29 44.2 17.2 C 704 – Lincoln Laboratory ETS, New Mexico MPS 287944
2008 04 30.33903 15 40 05.54 -09 29 43.6 16.8 C 704 – Lincoln Laboratory ETS, New Mexico MPS 287944
2008 05 01.26692 15 39 27.83 -09 26 05.7 19.7 V 691 – Steward Observatory, Kitt Peak-Spacewatch MPS 248087
2008 05 01.28454 15 39 27.11 -09 26 01.4 20.4 V 691 – Steward Observatory, Kitt Peak-Spacewatch MPS 248087
2008 05 01.30511 15 39 26.19 -09 25 56.5 19.7 V 691 – Steward Observatory, Kitt Peak-Spacewatch MPS 248087
2008 05 08.23136 15 34 26.87 -08 59 42.2   691 – Steward Observatory, Kitt Peak-Spacewatch MPS 248925
2008 05 08.24905 15 34 26.03 -08 59 38.4   691 – Steward Observatory, Kitt Peak-Spacewatch MPS 248925
2008 05 08.26674 15 34 25.21 -08 59 34.4   691 – Steward Observatory, Kitt Peak-Spacewatch MPS 248925
2008 05 12.30662 15 31 22.28 -08 45 41.3 18.8   704 – Lincoln Laboratory ETS, New Mexico MPS 249786
2008 05 12.31706 15 31 21.75 -08 45 38.8 19.5   704 – Lincoln Laboratory ETS, New Mexico MPS 249786
2008 05 12.32748 15 31 21.24 -08 45 37.3 19.3   704 – Lincoln Laboratory ETS, New Mexico MPS 249786
2008 05 12.33791 15 31 20.78 -08 45 34.2 19.5   704 – Lincoln Laboratory ETS, New Mexico MPS 249786
2008 05 12.34833 15 31 20.31 -08 45 32.5 19.1   704 – Lincoln Laboratory ETS, New Mexico MPS 249786
2008 05 29.17514 15 19 01.90 -08 04 20.9 19.6 V 691 – Steward Observatory, Kitt Peak-Spacewatch MPS 250391
2008 05 29.19271 15 19 01.19 -08 04 19.2 19.7 V 691 – Steward Observatory, Kitt Peak-Spacewatch MPS 250391
2008 05 29.21028 15 19 00.47 -08 04 17.7 19.7 V 691 – Steward Observatory, Kitt Peak-Spacewatch MPS 250391
2008 05 29.26787 15 18 58.06 -08 04 13.0 19.6 V G96 – Mt. Lemmon Survey MPS 250391
